FW6214 Weather Reports


time (UTC)temp
C
wind
direction
speed
KPH
gust
KPH
rain 1hr
cm
rain 24hr
cm
rain mn
cm
humidity
%
barometer
mb
20260906113828 23 131 0.0 0.0 0.00 0.48 0.00 79 1016.7
20260906113314 23 132 0.0 0.0 0.00 0.48 0.00 78 1016.7
20260906112836 23 134 0.0 0.0 0.00 0.48 0.00 79 1016.7
20260906112324 22 133 0.0 0.0 0.00 0.48 0.00 78 1016.6
20260906111825 22 133 0.0 0.0 0.00 0.48 0.00 78 1016.6
20260906111326 22 133 0.0 0.0 0.00 0.48 0.00 78 1016.6
20260906110834 22 134 0.0 0.0 0.00 0.48 0.48 79 1016.5
20260906110318 22 132 0.0 0.0 0.00 0.48 0.48 79 1016.6
20260906105820 22 133 0.0 0.0 0.00 0.48 0.48 79 1016.6
20260906105349 22 133 0.0 0.0 0.00 0.48 0.48 79 1016.6
20260906104810 22 133 0.0 0.0 0.00 0.48 0.48 79 1016.6
20260906104319 22 132 0.0 0.0 0.00 0.48 0.48 78 1016.6
20260906103840 22 134 0.0 0.0 0.00 0.48 0.48 78 1016.5
20260906103329 22 134 0.0 0.0 0.00 0.48 0.48 79 1016.5
20260906102812 22 135 0.0 0.0 0.00 0.48 0.48 79 1016.6
20260906102314 22 133 0.0 0.0 0.00 0.48 0.48 79 1016.7
20260906101843 22 134 0.0 0.0 0.00 0.48 0.48 79 1016.6
20260906101325 22 136 0.0 0.0 0.00 0.48 0.48 79 1016.6
20260906100853 22 136 0.0 0.0 0.00 0.48 0.48 79 1016.5
20260906100316 22 137 0.0 0.0 0.00 0.48 0.48 79 1016.5
20260906095819 22 137 0.0 0.0 0.00 0.48 0.48 78 1016.6
20260906095346 23 137 0.0 0.0 0.00 0.48 0.48 78 1016.6
20260906094831 23 137 0.0 0.0 0.00 0.48 0.48 77 1016.6
20260906094310 23 137 0.0 0.0 0.00 0.48 0.48 77 1016.6
20260906093811 22 141 0.0 0.0 0.00 0.48 0.48 78 1016.7
20260906093313 22 138 0.0 0.0 0.00 0.48 0.48 79 1016.6
20260906092821 22 137 0.0 0.0 0.00 0.48 0.48 79 1016.6
20260906092326 22 138 0.0 0.0 0.00 0.48 0.48 79 1016.6
20260906091827 23 139 0.0 0.0 0.00 0.48 0.48 79 1016.8
20260906091310 23 139 0.0 0.0 0.00 0.48 0.48 78 1016.7
20260906090819 23 139 0.0 0.0 0.00 0.48 0.48 77 1016.7
20260906090323 23 139 0.0 0.0 0.00 0.48 0.48 77 1016.7
20260906085831 23 139 0.0 0.0 0.00 0.48 0.48 77 1016.6
20260906085313 23 139 0.0 0.0 0.00 0.48 0.48 77 1016.6
20260906084817 23 139 0.0 0.0 0.00 0.48 0.48 76 1016.5
20260906084320 23 139 0.0 0.0 0.00 0.48 0.48 76 1016.5
20260906083829 23 139 0.0 0.0 0.00 0.48 0.48 76 1016.4
20260906083311 23 139 0.0 0.0 0.00 0.48 0.48 76 1016.4
20260906082837 23 139 0.0 0.0 0.00 0.48 0.48 76 1016.5
20260906082345 23 139 0.0 0.0 0.00 0.48 0.48 76 1016.5
20260906081827 23 139 0.0 0.0 0.00 0.48 0.48 76 1016.5
20260906081311 23 139 0.0 0.0 0.00 0.48 0.48 76 1016.5
20260906080821 23 139 0.0 0.0 0.00 0.48 0.48 76 1016.4
20260906080326 23 139 0.0 0.0 0.00 0.48 0.48 75 1016.4
20260906075811 23 139 0.0 0.0 0.00 0.48 0.48 75 1016.4
20260906075320 23 139 0.0 0.0 0.00 0.48 0.48 76 1016.4
20260906074824 23 139 0.0 0.0 0.00 0.48 0.48 76 1016.4
20260906074308 23 139 0.0 0.0 0.00 0.48 0.48 76 1016.4
20260906073809 23 139 0.0 0.0 0.00 0.48 0.48 76 1016.4
20260906073321 23 139 0.0 0.0 0.00 0.48 0.48 77 1016.3
20260906072823 23 139 0.0 0.0 0.00 0.48 0.48 77 1016.3
20260906072326 23 139 0.0 0.0 0.00 0.48 0.48 78 1016.4
20260906071808 23 139 0.0 0.0 0.00 0.48 0.48 77 1016.5
20260906071317 23 139 0.0 0.0 0.00 0.48 0.48 77 1016.5
20260906070821 23 139 0.0 0.0 0.00 0.48 0.48 76 1016.6
20260906070332 23 139 0.0 0.0 0.00 0.48 0.48 76 1016.6
20260906065819 23 139 0.0 0.0 0.00 0.48 0.48 76 1016.6
20260906065328 23 139 0.0 0.0 0.00 0.48 0.48 76 1016.6
20260906064810 23 139 0.0 0.0 0.00 0.48 0.48 76 1016.6
20260906064315 23 139 0.0 0.0 0.00 0.48 0.48 76 1016.4
20260906063818 23 139 0.0 0.0 0.00 0.48 0.48 75 1016.5
20260906063326 23 139 0.0 0.0 0.00 0.48 0.48 75 1016.5
20260906062826 23 139 0.0 0.0 0.00 0.48 0.48 76 1016.5
20260906062336 23 139 0.0 0.0 0.00 0.48 0.48 76 1016.5
20260906061823 23 138 0.0 0.0 0.00 0.48 0.48 76 1016.6
20260906061326 23 139 0.0 0.0 0.00 0.48 0.48 75 1016.7
20260906060809 23 138 0.0 0.0 0.00 0.48 0.48 76 1016.9
20260906060311 23 139 0.0 0.0 0.00 0.48 0.48 76 1017.0
20260906055840 23 139 0.0 0.0 0.00 0.48 0.48 76 1017.0
20260906055308 23 139 0.0 0.0 0.00 0.48 0.48 76 1017.1
20260906054819 23 139 0.0 0.0 0.00 0.48 0.48 76 1017.1
20260906054320 23 138 0.0 0.0 0.00 0.48 0.48 76 1017.1
20260906053849 23 139 0.0 0.0 0.00 0.48 0.48 76 1017.2
20260906053349 23 138 0.0 0.0 0.00 0.48 0.48 77 1017.3
20260906052809 23 139 0.0 0.0 0.00 0.48 0.48 76 1017.4
20260906052319 23 139 0.0 0.0 0.00 0.48 0.48 76 1017.5
20260906051820 23 139 0.0 0.0 0.00 0.48 0.48 76 1017.4
20260906051330 23 138 0.0 0.0 0.00 0.48 0.48 75 1017.4
20260906050811 23 139 0.0 0.0 0.00 0.48 0.48 76 1017.4
20260906050315 23 138 0.0 0.0 0.00 0.48 0.48 76 1017.4
20260906045824 23 138 0.0 0.0 0.00 0.48 0.48 76 1017.4
20260906045347 22 138 0.0 0.0 0.00 0.48 0.48 76 1017.4
20260906044834 22 138 0.0 0.0 0.00 0.48 0.48 77 1017.5
20260906044317 22 138 0.0 0.0 0.00 0.48 0.48 78 1017.7
20260906043820 22 139 0.0 0.0 0.00 0.48 0.48 78 1017.7
20260906043323 22 138 0.0 0.0 0.00 0.48 0.48 78 1017.6
20260906042833 22 138 0.0 0.0 0.00 0.48 0.48 78 1017.8
20260906042316 22 139 0.0 0.0 0.00 0.48 0.48 78 1017.9
20260906041827 22 138 0.0 0.0 0.00 0.48 0.48 78 1017.8
20260906041309 22 138 0.0 0.0 0.00 0.48 0.48 76 1017.8
20260906040811 21 138 0.0 0.0 0.00 0.48 0.48 73 1017.8
20260906040312 22 137 0.0 0.0 0.00 0.48 0.48 69 1017.7
20260906035820 22 137 0.0 0.0 0.00 0.48 0.48 73 1017.7
20260906035323 22 143 0.0 0.0 0.00 0.48 0.48 77 1017.7
20260906034853 23 140 0.0 0.0 0.00 0.48 0.48 78 1017.8
20260906034335 23 139 0.0 0.0 0.00 0.48 0.48 78 1017.7
20260906033816 23 138 0.0 0.0 0.00 0.48 0.48 78 1017.6
20260906033345 23 138 0.0 0.0 0.00 0.48 0.48 78 1017.5
20260906032833 23 137 0.0 0.0 0.00 0.48 0.48 77 1017.5
20260906032315 23 137 0.0 0.0 0.00 0.48 0.48 77 1017.5
20260906031814 23 137 0.0 0.0 0.00 0.48 0.48 78 1017.5
20260906031324 22 137 0.0 0.0 0.00 0.48 0.48 78 1017.6
20260906030824 22 137 0.0 0.0 0.00 0.48 0.48 71 1017.6
20260906030333 22 136 0.0 0.0 0.00 0.48 0.48 67 1017.7
20260906025815 22 136 0.0 0.0 0.00 0.48 0.48 70 1017.8
20260906025318 22 139 0.0 0.0 0.00 0.48 0.48 74 1018.0
20260906024819 23 143 0.0 0.0 0.00 0.48 0.48 78 1018.0
20260906024349 23 139 0.0 0.0 0.00 0.48 0.48 79 1017.9
20260906023838 23 139 0.0 0.0 0.00 0.48 0.48 79 1017.9
20260906023320 23 140 0.0 0.0 0.00 0.48 0.48 77 1018.0
20260906022821 24 140 0.0 0.0 0.00 0.48 0.48 75 1017.9
20260906022330 24 136 0.0 0.0 0.00 0.48 0.48 73 1017.9
20260906021839 25 136 0.0 0.0 0.00 0.48 0.48 74 1017.8
20260906021321 25 136 0.0 0.0 0.00 0.48 0.48 74 1017.8
20260906020833 25 135 0.0 0.0 0.00 0.48 0.48 74 1018.0
20260906020322 25 135 0.0 0.0 0.00 0.48 0.48 74 1017.9
20260906015826 24 135 0.0 0.0 0.00 0.48 0.48 74 1017.9
20260906015309 25 134 0.0 0.0 0.00 0.48 0.48 74 1017.6
20260906014817 24 134 0.0 0.0 0.00 0.48 0.48 75 1017.6
20260906014322 24 134 0.0 0.0 0.00 0.48 0.48 75 1017.5
20260906013831 24 135 0.0 0.0 0.00 0.48 0.48 75 1017.5
20260906013317 24 134 0.0 0.0 0.00 0.48 0.48 75 1017.5
20260906012823 24 135 0.0 0.0 0.00 0.48 0.48 75 1017.3
20260906012328 24 135 0.0 0.0 0.00 0.48 0.48 74 1017.1
20260906011814 24 136 0.0 0.0 0.00 0.48 0.48 75 1017.0
20260906011316 24 136 0.0 0.0 0.00 0.48 0.48 75 1016.8
20260906010819 24 136 0.0 0.0 0.00 0.48 0.48 76 1016.7
20260906010328 24 135 0.0 0.0 0.00 0.48 0.48 77 1016.6
20260906005828 24 136 0.0 0.0 0.00 0.48 0.48 77 1016.4
20260906005310 23 136 0.0 0.0 0.00 0.48 0.48 78 1016.5
20260906004845 23 135 0.0 0.0 0.00 0.48 0.48 78 1016.5
20260906004326 23 134 0.0 0.0 0.00 0.48 0.48 78 1016.3
20260906003816 23 134 0.0 0.0 0.00 0.48 0.48 78 1016.2
20260906003324 23 134 0.0 0.0 0.00 0.48 0.48 78 1016.0
20260906002826 23 134 0.0 0.0 0.00 0.48 0.48 78 1016.0
20260906002335 23 134 0.0 0.0 0.00 0.48 0.48 78 1016.1
20260906001844 23 135 0.0 0.0 0.00 0.48 0.48 78 1016.0
20260906001326 23 134 0.0 0.0 0.00 0.48 0.48 78 1015.9
20260906000810 24 132 0.0 8.0 0.00 0.48 0.48 77 1015.8
20260906000340 23 131 6.4 8.0 0.00 0.48 0.48 77 1015.9
20260905235819 23 134 3.2 6.4 0.00 0.48 0.48 68 1016.0
20260905235331 23 136 1.6 3.2 0.00 0.48 0.48 66 1016.0
20260905234813 23 139 0.0 0.0 0.00 0.48 0.48 62 1016.2
20260905234321 23 140 0.0 0.0 0.00 0.48 0.48 64 1016.3
20260905233831 23 139 0.0 0.0 0.00 0.48 0.48 59 1016.3
20260905233341 23 139 0.0 0.0 0.00 0.48 0.48 57 1016.3
20260905232821 23 139 0.0 0.0 0.00 0.48 0.48 58 1016.5
20260905232331 24 139 0.0 0.0 0.00 0.48 0.48 65 1016.6
20260905231833 23 139 0.0 0.0 0.00 0.48 0.48 63 1016.7
20260905231315 23 140 0.0 0.0 0.00 0.48 0.48 48 1016.8
20260905230826 23 139 0.0 0.0 0.00 0.48 0.48 48 1016.8
20260905230310 24 139 0.0 0.0 0.00 0.48 0.48 58 1016.6
20260905225820 24 139 0.0 0.0 0.00 0.48 0.48 58 1016.6
20260905225322 23 139 0.0 0.0 0.00 0.48 0.48 51 1016.6
20260905224816 23 137 0.0 3.2 0.00 0.48 0.48 58 1016.6
20260905224339 23 136 0.0 6.4 0.00 0.48 0.48 56 1016.6
20260905223817 23 133 4.8 6.4 0.00 0.48 0.48 55 1016.5
20260905223319 22 133 3.2 6.4 0.00 0.48 0.48 59 1016.5
20260905222855 22 132 4.8 6.4 0.00 0.48 0.48 62 1016.6
20260905222317 22 132 4.8 6.4 0.00 0.48 0.48 63 1016.7
20260905221819 22 134 1.6 3.2 0.00 0.48 0.48 59 1016.7
20260905221321 22 134 0.0 1.6 0.00 0.48 0.48 21 1016.7
20260905220829 22 134 0.0 1.6 0.00 0.48 0.48 25 1016.6
20260905220315 22 134 0.0 6.4 0.03 0.48 0.48 3 1016.3
20260905215812 22 133 1.6 6.4 0.05 0.48 0.48 1 1016.3
20260905215321 22 130 3.2 6.4 0.15 0.48 0.48 1 1016.2
20260905214827 22 129 4.8 8.0 0.33 0.48 0.48 1 1016.2
20260905214328 22 128 4.8 9.7 0.46 0.48 0.48 1 1016.1
20260905213810 22 126 6.4 9.7 0.48 0.48 0.48 1 1016.1
20260905213310 22 124 0.0 0.0 0.48 0.48 0.48 1 1016.1
20260905212818 22 127 0.0 0.0 0.48 0.48 0.48 1 1016.2
20260905212320 22 128 0.0 6.4 0.48 0.48 0.48 15 1016.4
20260905211821 23 126 0.0 6.4 0.48 0.48 0.48 4 1016.6
20260905211329 23 126 4.8 6.4 0.48 0.48 0.48 1 1016.8
20260905210809 23 132 0.0 3.2 0.48 0.48 0.48 1 1017.1
20260905210314 23 134 0.0 4.8 0.46 0.46 0.46 7 1017.2
20260905205849 23 132 1.6 8.0 0.43 0.43 0.43 7 1017.2
20260905205310 24 133 3.2 8.0 0.30 0.30 0.30 45 1017.3
20260905204826 25 132 3.2 8.0 0.15 0.15 0.15 78 1017.3
20260905204332 26 132 3.2 8.0 0.03 0.03 0.03 79 1017.1
20260905203824 28 143 0.0 0.0 0.00 0.00 0.00 75 1016.8
20260905203326 28 145 0.0 0.0 0.00 0.00 0.00 71 1016.8
20260905202809 28 145 0.0 0.0 0.00 0.00 0.00 70 1016.8
20260905202317 28 145 0.0 0.0 0.00 0.00 0.00 71 1017.0
20260905201818 28 145 0.0 0.0 0.00 0.00 0.00 72 1017.1
20260905201329 28 145 0.0 0.0 0.00 0.00 0.00 73 1017.1
20260905200813 27 145 0.0 0.0 0.00 0.00 0.00 75 1017.1
20260905200314 27 144 0.0 0.0 0.00 0.00 0.00 74 1017.1
20260905195816 28 144 0.0 0.0 0.00 0.00 0.00 73 1017.1
20260905195324 28 144 0.0 0.0 0.00 0.00 0.00 71 1017.1
20260905194811 28 145 0.0 0.0 0.00 0.00 0.00 68 1017.1
20260905194313 28 145 0.0 0.0 0.00 0.00 0.00 66 1017.1
20260905193830 29 145 0.0 0.0 0.00 0.00 0.00 67 1017.2
20260905193319 29 146 0.0 0.0 0.00 0.00 0.00 64 1017.2
20260905192330 29 145 0.0 0.0 0.00 0.00 0.00 65 1017.4
20260905191811 28 145 0.0 0.0 0.00 0.00 0.00 65 1017.6
20260905191315 28 145 0.0 0.0 0.00 0.00 0.00 66 1017.7
20260905190818 28 145 0.0 0.0 0.00 0.00 0.00 64 1017.7
20260905190311 28 145 0.0 0.0 0.00 0.00 0.00 65 1017.7
20260905185812 28 145 0.0 0.0 0.00 0.00 0.00 66 1017.7
20260905185315 28 145 0.0 0.0 0.00 0.00 0.00 65 1017.6
20260905184859 28 145 0.0 0.0 0.00 0.00 0.00 66 1017.6
20260905184326 28 145 0.0 0.0 0.00 0.00 0.00 66 1017.7
20260905183846 28 145 0.0 0.0 0.00 0.00 0.00 67 1017.7
20260905183333 28 145 0.0 0.0 0.00 0.00 0.00 67 1017.8
20260905182814 28 145 0.0 0.0 0.00 0.00 0.00 65 1017.8
20260905182323 28 145 0.0 0.0 0.00 0.00 0.00 65 1017.9
20260905181810 28 145 0.0 0.0 0.00 0.00 0.00 67 1018.0
20260905181311 28 145 0.0 0.0 0.00 0.00 0.00 67 1018.1
20260905180812 28 145 0.0 0.0 0.00 0.00 0.00 70 1018.2
20260905180322 28 145 0.0 0.0 0.00 0.00 0.00 71 1018.3
20260905175822 28 145 0.0 0.0 0.00 0.00 0.00 70 1018.3
20260905175323 28 145 0.0 0.0 0.00 0.00 0.00 69 1018.3
20260905174833 28 145 0.0 0.0 0.00 0.00 0.00 72 1018.3
20260905174332 28 145 0.0 0.0 0.00 0.00 0.00 70 1018.4
20260905173820 28 145 0.0 0.0 0.00 0.00 0.00 71 1018.5
20260905173324 28 145 0.0 0.0 0.00 0.00 0.00 69 1018.5
20260905172851 28 145 0.0 0.0 0.00 0.00 0.00 69 1018.6
20260905172309 28 145 0.0 0.0 0.00 0.00 0.00 71 1018.6
20260905171812 28 145 0.0 0.0 0.00 0.00 0.00 72 1018.7
20260905171323 28 145 0.0 0.0 0.00 0.00 0.00 72 1018.7
20260905170826 28 145 0.0 0.0 0.00 0.00 0.00 73 1018.7
20260905170356 28 145 0.0 0.0 0.00 0.00 0.00 72 1018.7
20260905165838 28 144 0.0 0.0 0.00 0.00 0.00 73 1018.8
20260905165346 28 146 0.0 0.0 0.00 0.00 0.00 74 1018.7
20260905164826 28 146 0.0 0.0 0.00 0.00 0.00 74 1018.8
20260905164335 28 145 0.0 0.0 0.00 0.00 0.00 73 1018.9
20260905163817 28 145 0.0 0.0 0.00 0.00 0.00 74 1018.9
20260905163321 28 145 0.0 0.0 0.00 0.00 0.00 75 1018.9
20260905162827 28 145 0.0 0.0 0.00 0.00 0.00 75 1019.0
20260905162309 28 146 0.0 0.0 0.00 0.00 0.00 75 1019.1
20260905161830 28 146 0.0 0.0 0.00 0.00 0.00 76 1019.1
20260905161317 27 146 0.0 0.0 0.00 0.00 0.00 75 1019.2
20260905160817 27 145 0.0 0.0 0.00 0.00 0.00 76 1019.2
20260905160318 27 145 0.0 0.0 0.00 0.00 0.00 75 1019.2
20260905155829 27 145 0.0 0.0 0.00 0.00 0.00 75 1019.2
20260905155309 27 145 0.0 0.0 0.00 0.00 0.00 75 1019.2
20260905154318 27 145 0.0 0.0 0.00 0.00 0.00 76 1019.4
20260905153820 27 146 0.0 0.0 0.00 0.00 0.00 76 1019.4
20260905153348 27 145 0.0 0.0 0.00 0.00 0.00 76 1019.3
20260905152810 27 145 0.0 0.0 0.00 0.00 0.00 78 1019.3
20260905152310 26 145 0.0 0.0 0.00 0.00 0.00 78 1019.3
20260905151811 26 145 0.0 0.0 0.00 0.00 0.00 77 1019.3
20260905151319 26 145 0.0 0.0 0.00 0.00 0.00 78 1019.3
20260905150820 26 145 0.0 0.0 0.00 0.00 0.00 78 1019.4
20260905150322 26 144 0.0 0.0 0.00 0.00 0.00 78 1019.4
20260905145831 26 145 0.0 0.0 0.00 0.00 0.00 78 1019.4
20260905145313 26 145 0.0 0.0 0.00 0.00 0.00 78 1019.4
20260905144821 26 145 0.0 0.0 0.00 0.00 0.00 77 1019.4
20260905144319 25 145 0.0 0.0 0.00 0.00 0.00 78 1019.4
20260905143820 25 145 0.0 0.0 0.00 0.00 0.00 78 1019.4
20260905143315 25 145 0.0 0.0 0.00 0.00 0.00 78 1019.5
20260905142815 25 146 0.0 0.0 0.00 0.00 0.00 78 1019.4
20260905142317 25 145 0.0 0.0 0.00 0.00 0.00 77 1019.5
20260905141846 24 146 0.0 0.0 0.00 0.00 0.00 76 1019.5
20260905141326 24 146 0.0 0.0 0.00 0.00 0.00 76 1019.5
20260905140811 24 147 0.0 0.0 0.00 0.00 0.00 76 1019.5
20260905140318 24 145 0.0 0.0 0.00 0.00 0.00 76 1019.6
20260905135827 24 145 0.0 0.0 0.00 0.00 0.00 76 1019.5
20260905135311 24 145 0.0 0.0 0.00 0.00 0.00 77 1019.5
20260905134814 24 145 0.0 0.0 0.00 0.00 0.00 77 1019.5
20260905134316 24 144 0.0 0.0 0.00 0.00 0.00 77 1019.6
20260905133825 23 145 0.0 0.0 0.00 0.00 0.00 77 1019.6
20260905133326 23 146 0.0 0.0 0.00 0.00 0.00 77 1019.6
20260905132809 23 148 0.0 0.0 0.00 0.00 0.00 77 1019.7
20260905132312 23 148 0.0 0.0 0.00 0.00 0.00 74 1019.7
20260905131841 23 149 0.0 0.0 0.00 0.00 0.00 76 1019.7
20260905131323 23 149 0.0 0.0 0.00 0.00 0.00 75 1019.7
20260905130833 23 149 0.0 0.0 0.00 0.00 0.00 74 1019.7
20260905130336 23 149 0.0 0.0 0.00 0.00 0.00 75 1019.8
20260905125825 23 149 0.0 0.0 0.00 0.00 0.00 77 1019.7
20260905125347 23 149 0.0 0.0 0.00 0.00 0.00 77 1019.6
20260905124916 23 149 0.0 0.0 0.00 0.00 0.00 76 1019.6
20260905124337 23 149 0.0 0.0 0.00 0.00 0.00 76 1019.6
20260905123844 23 149 0.0 0.0 0.00 0.00 0.00 77 1019.6
20260905123326 23 149 0.0 0.0 0.00 0.00 0.00 77 1019.6
20260905122836 23 149 0.0 0.0 0.00 0.00 0.00 78 1019.6
20260905122317 23 149 0.0 0.0 0.00 0.00 0.00 78 1019.6
20260905121820 23 149 0.0 0.0 0.00 0.00 0.00 79 1019.6
20260905121330 23 149 0.0 0.0 0.00 0.00 0.00 79 1019.6
20260905120813 23 149 0.0 0.0 0.00 0.00 0.00 79 1019.5
20260905120315 23 149 0.0 0.0 0.00 0.00 0.00 79 1019.4
20260905115818 23 149 0.0 0.0 0.00 0.00 0.00 79 1019.4
20260905115348 23 149 0.0 0.0 0.00 0.00 0.00 79 1019.3
20260905114810 23 149 0.0 0.0 0.00 0.00 0.00 79 1019.3
20260905114315 23 149 0.0 0.0 0.00 0.00 0.00 79 1019.3
20260905113844 23 149 0.0 0.0 0.00 0.00 0.00 79 1019.2